Regional Weather Roundup
Issued by NWS Cleveland, OH

Home | Current Version | Previous Version | Text Only | Print | Product List | Glossary Off
Versions: 1 2 3 4 5 6 7 8 9 10 11 12 13 14 15 16 17 18 19 20 21 22 23 24 25 26 27 28 29 30 31 32 33 34 35 36 37 38 39 40 41 42 43 44 45 46 47 48 49 50

090
ASUS41 KCLE 242210
RWRCLE
OHIO REGIONAL WEATHER ROUNDUP
NATIONAL WEATHER SERVICE WILMINGTON, OH
600 PM EDT TUE APR 24 2018

NOTE: "FAIR" INDICATES FEW OR NO CLOUDS BELOW 12,000 FEET WITH NO
SIGNIFICANT WEATHER AND/OR OBSTRUCTIONS TO VISIBILITY.

OHZ001>008-015>018-024>027-034-035-043-044-242300-
   NORTHWEST OHIO

CITY           SKY/WX    TMP DP  RH WIND       PRES   REMARKS
DEFIANCE       LGT RAIN  53  52  96 NE8       29.95F FOG
FINDLAY        LGT RAIN  54  51  90 NE7       29.94S FOG
TOLEDO EXPRESS LGT RAIN  52  52 100 E14       29.97S FOG
TOLEDO EXEC    LGT RAIN  51  48  89 NE10      29.98F FOG
LIMA           LGT RAIN  54  52  93 E5        29.93S
$$

OHZ009>014-019>023-028>033-038-089-242300-
   NORTHEAST OHIO

CITY           SKY/WX    TMP DP  RH WIND       PRES   REMARKS
CLE-HOPKINS    LGT RAIN  56  51  84 SE14      30.00F
CLE-LAKEFRONT  LGT RAIN  55  50  83 SE14      29.98F
CUY CO. ARPT   LGT RAIN  55  52  88 SE20G25   29.99F
LORAIN-ELYRIA  LGT RAIN  54  47  77 E6        29.97F
ASHTABULA      CLOUDY    53  51  93 SE10      30.03F
AKRON-CANTON   CLOUDY    54  50  86 E10       29.98F FOG
WOOSTER        LGT RAIN  53  51  93 SE10      29.97F
MANSFIELD      CLOUDY    53  51  93 E15       29.94F
YOUNGSTOWN     LGT RAIN  52  50  93 E13       30.01F
$$

OHZ042-051>053-060>062-070>072-077>081-242300-
  SOUTHWEST OHIO

CITY           SKY/WX    TMP DP  RH WIND       PRES   REMARKS
CINC-COVINGTON DRIZZLE   56  55  97 N7        29.89S FOG
CINC-LUNKEN    CLOUDY    56  56 100 N5        29.90S FOG
HAMILTON       CLOUDY    56  54  93 NE5       29.91S
DAYTON         CLOUDY    53  53 100 NE5       29.92S FOG
WRIGHT-PAT AFB CLOUDY    54  52  94 E10       29.91S FOG
DAYTON GENERAL LGT RAIN  56  53  90 NE6       29.90S FOG
WILMINGTON     LGT RAIN  54  54 100 E6        29.90R FOG
$$

OHZ036-037-039>041-045>050-054>059-063>069-073>076-082>088-242300-
  CENTRAL AND SOUTHEAST OHIO

CITY           SKY/WX    TMP DP  RH WIND       PRES   REMARKS
COLUMBUS       CLOUDY    56  52  86 E13       29.91S
OSU AIRPORT    CLOUDY    54  52  93 E13       29.91S FOG
BOLTON FIELD   DRIZZLE   54  54 100 E8        29.92
RICKENBACK AFB DRIZZLE   54  54  99 E10       29.91S
NEWARK         CLOUDY    55  52  89 E12       29.92S
MARION         CLOUDY    54  50  86 SE12      29.94S
LANCASTER      RAIN      54  52  93 E8        29.92R
ZANESVILLE     CLOUDY    54  51  90 E8        29.93F
NEW PHILLY     LGT RAIN  54  52  93 E7        29.97S
$$




USA.gov is the U.S. government's official web portal to all federal, state and local government web resources and services.